Time,TemperatureF,DewpointF,PressureIn,WindDirection,WindDirectionDegrees,WindSpeedMPH,WindSpeedGustMPH,Humidity,HourlyPrecipIn,Conditions,Clouds,dailyrainin,SoftwareType,DateUTC
2013-05-25 00:03:00,40.0,-99.9,30.38,WSW,245,5.0,7.0,-999,-99.99,,,-99.99,,2013-05-25 04:03:00,
2013-05-25 00:13:00,40.0,-99.9,30.39,WSW,245,5.0,7.0,-999,-99.99,,,-99.99,,2013-05-25 04:13:00,
2013-05-25 00:23:00,40.0,-99.9,30.39,WSW,245,5.0,7.0,-999,-99.99,,,-99.99,,2013-05-25 04:23:00,
2013-05-25 00:33:00,40.0,-99.9,30.39,WSW,245,5.0,7.0,-999,-99.99,,,-99.99,,2013-05-25 04:33:00,
2013-05-25 00:40:00,41.0,-99.9,30.39,West,265,8.0,11.0,-999,-99.99,,,-99.99,,2013-05-25 04:40:00,
2013-05-25 01:02:00,41.0,-99.9,31.09,West,265,8.0,11.0,-999,-99.99,,,-99.99,,2013-05-25 05:02:00,
2013-05-25 01:12:00,41.0,-99.9,30.39,West,265,8.0,11.0,-999,-99.99,,,-99.99,,2013-05-25 05:12:00,
2013-05-25 01:22:00,41.0,-99.9,30.39,West,265,8.0,11.0,-999,-99.99,,,-99.99,,2013-05-25 05:22:00,
2013-05-25 01:32:00,41.0,-99.9,30.39,West,265,8.0,11.0,-999,-99.99,,,-99.99,,2013-05-25 05:32:00,
2013-05-25 02:02:00,39.0,-99.9,31.09,WSW,242,3.0,5.0,-999,-99.99,,,-99.99,,2013-05-25 06:02:00,
2013-05-25 02:12:00,39.0,-99.9,30.39,WSW,242,3.0,5.0,-999,-99.99,,,-99.99,,2013-05-25 06:12:00,
2013-05-25 02:22:00,39.0,-99.9,30.39,WSW,242,3.0,5.0,-999,-99.99,,,-99.99,,2013-05-25 06:22:00,
2013-05-25 02:33:00,38.0,-99.9,30.38,West,260,3.0,11.0,-999,-99.99,,,-99.99,,2013-05-25 06:33:00,
2013-05-25 02:42:00,38.0,-99.9,30.38,West,260,3.0,11.0,-999,-99.99,,,-99.99,,2013-05-25 06:42:00,
2013-05-25 02:52:00,38.0,-99.9,30.38,West,260,3.0,11.0,-999,-99.99,,,-99.99,,2013-05-25 06:52:00,
2013-05-25 03:02:00,38.0,-99.9,30.38,NNW,336,2.0,4.0,-999,-99.99,,,-99.99,,2013-05-25 07:02:00,
2013-05-25 03:11:00,38.0,-99.9,30.38,NNW,336,2.0,4.0,-999,-99.99,,,-99.99,,2013-05-25 07:11:00,
2013-05-25 03:22:00,38.0,-99.9,30.38,West,260,3.0,11.0,-999,-99.99,,,-99.99,,2013-05-25 07:22:00,
2013-05-25 03:32:00,38.0,-99.9,30.38,West,260,3.0,11.0,-999,-99.99,,,-99.99,,2013-05-25 07:32:00,
2013-05-25 03:42:00,38.0,-99.9,30.38,West,260,3.0,11.0,-999,-99.99,,,-99.99,,2013-05-25 07:42:00,
2013-05-25 03:52:00,38.0,-99.9,30.38,NNE,19,1.0,7.0,-999,-99.99,,,-99.99,,2013-05-25 07:52:00,
2013-05-25 04:02:00,37.0,-99.9,31.08,NNE,15,3.0,4.0,-999,-99.99,,,-99.99,,2013-05-25 08:02:00,
2013-05-25 04:11:00,37.0,-99.9,30.38,NNE,15,3.0,4.0,-999,-99.99,,,-99.99,,2013-05-25 08:11:00,
2013-05-25 04:23:00,38.0,-99.9,30.38,NNE,19,1.0,7.0,-999,-99.99,,,-99.99,,2013-05-25 08:23:00,
2013-05-25 04:32:00,38.0,-99.9,31.08,NNE,19,1.0,7.0,-999,-99.99,,,-99.99,,2013-05-25 08:32:00,
2013-05-25 04:42:00,38.0,-99.9,30.38,NNE,19,1.0,7.0,-999,-99.99,,,-99.99,,2013-05-25 08:42:00,
2013-05-25 04:52:00,38.0,-99.9,30.38,NNE,19,1.0,7.0,-999,-99.99,,,-99.99,,2013-05-25 08:52:00,
2013-05-25 05:02:00,37.0,-99.9,31.08,NE,40,1.0,3.0,-999,-99.99,,,-99.99,,2013-05-25 09:02:00,
2013-05-25 05:12:00,37.0,-99.9,30.38,NE,40,1.0,3.0,-999,-99.99,,,-99.99,,2013-05-25 09:12:00,
2013-05-25 05:22:00,37.0,-99.9,31.08,North,11,1.0,4.0,-999,-99.99,,,-99.99,,2013-05-25 09:22:00,
2013-05-25 05:33:00,37.0,-99.9,30.38,North,11,1.0,4.0,-999,-99.99,,,-99.99,,2013-05-25 09:33:00,
2013-05-25 05:43:00,37.0,-99.9,30.38,North,11,1.0,4.0,-999,-99.99,,,-99.99,,2013-05-25 09:43:00,
2013-05-25 05:53:00,37.0,-99.9,30.38,North,11,1.0,4.0,-999,-99.99,,,-99.99,,2013-05-25 09:53:00,
2013-05-25 06:03:00,37.0,-99.9,30.39,ENE,73,2.0,3.0,-999,-99.99,,,-99.99,,2013-05-25 10:03:00,
2013-05-25 06:13:00,37.0,-99.9,30.40,ENE,73,2.0,3.0,-999,-99.99,,,-99.99,,2013-05-25 10:13:00,
2013-05-25 06:23:00,37.0,-99.9,31.09,ENE,74,2.0,5.0,-999,-99.99,,,-99.99,,2013-05-25 10:23:00,
2013-05-25 06:33:00,37.0,-99.9,30.39,ENE,74,2.0,5.0,-999,-99.99,,,-99.99,,2013-05-25 10:33:00,
2013-05-25 06:42:00,38.0,-99.9,31.09,ENE,61,5.0,6.0,-999,-99.99,,,-99.99,,2013-05-25 10:42:00,
2013-05-25 06:52:00,38.0,-99.9,31.09,ENE,61,5.0,6.0,-999,-99.99,,,-99.99,,2013-05-25 10:52:00,
2013-05-25 07:03:00,41.0,-99.9,30.39,ENE,78,4.0,9.0,-999,-99.99,,,-99.99,,2013-05-25 11:03:00,
2013-05-25 07:12:00,41.0,-99.9,30.39,ENE,78,4.0,9.0,-999,-99.99,,,-99.99,,2013-05-25 11:12:00,
2013-05-25 07:22:00,38.0,-99.9,30.39,ENE,61,5.0,6.0,-999,-99.99,,,-99.99,,2013-05-25 11:22:00,
2013-05-25 07:32:00,38.0,-99.9,30.39,ENE,61,5.0,6.0,-999,-99.99,,,-99.99,,2013-05-25 11:32:00,
2013-05-25 07:42:00,38.0,-99.9,30.39,ENE,61,5.0,6.0,-999,-99.99,,,-99.99,,2013-05-25 11:42:00,
2013-05-25 07:53:00,43.0,-99.9,30.40,East,93,5.0,9.0,-999,-99.99,,,-99.99,,2013-05-25 11:53:00,
2013-05-25 08:02:00,44.0,-99.9,31.12,ENE,78,4.0,6.0,-999,-99.99,,,-99.99,,2013-05-25 12:02:00,
2013-05-25 08:12:00,44.0,-99.9,30.41,ENE,78,4.0,6.0,-999,-99.99,,,-99.99,,2013-05-25 12:12:00,
2013-05-25 08:22:00,44.0,-99.9,30.41,ENE,78,4.0,6.0,-999,-99.99,,,-99.99,,2013-05-25 12:22:00,
2013-05-25 08:32:00,43.0,-99.9,30.40,East,93,5.0,9.0,-999,-99.99,,,-99.99,,2013-05-25 12:32:00,
2013-05-25 08:42:00,43.0,-99.9,30.40,East,93,5.0,9.0,-999,-99.99,,,-99.99,,2013-05-25 12:42:00,
2013-05-25 08:52:00,44.0,-99.9,30.44,NE,49,2.0,7.0,-999,-99.99,,,-99.99,,2013-05-25 12:52:00,
2013-05-25 09:02:00,47.0,-99.9,31.15,NNW,348,2.0,3.0,-999,-99.99,,,-99.99,,2013-05-25 13:02:00,
2013-05-25 09:11:00,47.0,-99.9,30.44,NNW,348,2.0,3.0,-999,-99.99,,,-99.99,,2013-05-25 13:11:00,
2013-05-25 09:22:00,47.0,-99.9,30.44,NNW,348,2.0,3.0,-999,-99.99,,,-99.99,,2013-05-25 13:22:00,
2013-05-25 09:32:00,44.0,-99.9,30.44,NE,49,2.0,7.0,-999,-99.99,,,-99.99,,2013-05-25 13:32:00,
2013-05-25 09:42:00,44.0,-99.9,30.44,NE,49,2.0,7.0,-999,-99.99,,,-99.99,,2013-05-25 13:42:00,
2013-05-25 09:52:00,44.0,-99.9,30.44,NE,49,2.0,7.0,-999,-99.99,,,-99.99,,2013-05-25 13:52:00,
2013-05-25 10:02:00,47.0,-99.9,30.46,NNW,334,3.0,4.0,-999,-99.99,,,-99.99,,2013-05-25 14:02:00,
2013-05-25 10:11:00,47.0,-99.9,30.46,NNW,334,3.0,4.0,-999,-99.99,,,-99.99,,2013-05-25 14:11:00,
2013-05-25 10:22:00,47.0,-99.9,30.46,NNW,334,3.0,4.0,-999,-99.99,,,-99.99,,2013-05-25 14:22:00,
2013-05-25 10:32:00,47.0,-99.9,30.46,NW,316,3.0,6.0,-999,-99.99,,,-99.99,,2013-05-25 14:32:00,
2013-05-25 10:42:00,47.0,-99.9,30.46,NW,316,3.0,6.0,-999,-99.99,,,-99.99,,2013-05-25 14:42:00,
2013-05-25 10:52:00,46.0,-99.9,30.45,NNW,339,4.0,5.0,-999,-99.99,,,-99.99,,2013-05-25 14:52:00,
2013-05-25 11:02:00,46.0,-99.9,31.15,North,3,5.0,5.0,-999,-99.99,,,-99.99,,2013-05-25 15:02:00,
2013-05-25 11:12:00,46.0,-99.9,30.44,North,3,5.0,5.0,-999,-99.99,,,-99.99,,2013-05-25 15:12:00,
2013-05-25 11:22:00,46.0,-99.9,31.16,NNW,339,4.0,5.0,-999,-99.99,,,-99.99,,2013-05-25 15:22:00,
2013-05-25 11:33:00,46.0,-99.9,30.45,NNW,339,4.0,5.0,-999,-99.99,,,-99.99,,2013-05-25 15:33:00,
2013-05-25 11:43:00,46.0,-99.9,30.45,NNW,339,4.0,5.0,-999,-99.99,,,-99.99,,2013-05-25 15:43:00,
2013-05-25 11:53:00,46.0,-99.9,30.44,North,351,4.0,6.0,-999,-99.99,,,-99.99,,2013-05-25 15:53:00,
2013-05-25 12:03:00,47.0,-99.9,31.15,NNW,344,4.0,4.0,-999,-99.99,,,-99.99,,2013-05-25 16:03:00,
2013-05-25 12:12:00,47.0,-99.9,30.44,NNW,344,4.0,4.0,-999,-99.99,,,-99.99,,2013-05-25 16:12:00,
2013-05-25 12:23:00,47.0,-99.9,30.44,NNW,344,4.0,4.0,-999,-99.99,,,-99.99,,2013-05-25 16:23:00,
2013-05-25 12:33:00,46.0,-99.9,30.44,North,351,4.0,6.0,-999,-99.99,,,-99.99,,2013-05-25 16:33:00,
2013-05-25 12:42:00,46.0,-99.9,31.14,North,350,3.0,5.0,-999,-99.99,,,-99.99,,2013-05-25 16:42:00,
2013-05-25 12:52:00,46.0,-99.9,30.43,North,350,3.0,5.0,-999,-99.99,,,-99.99,,2013-05-25 16:52:00,
2013-05-25 13:03:00,47.0,-99.9,31.14,NW,325,3.0,4.0,-999,-99.99,,,-99.99,,2013-05-25 17:03:00,
2013-05-25 13:11:00,47.0,-99.9,30.43,NW,325,3.0,4.0,-999,-99.99,,,-99.99,,2013-05-25 17:11:00,
2013-05-25 13:22:00,46.0,-99.9,30.43,North,350,3.0,5.0,-999,-99.99,,,-99.99,,2013-05-25 17:22:00,
2013-05-25 13:33:00,46.0,-99.9,30.43,North,350,3.0,5.0,-999,-99.99,,,-99.99,,2013-05-25 17:33:00,
2013-05-25 13:42:00,48.0,-99.9,31.14,NW,319,3.0,5.0,-999,-99.99,,,-99.99,,2013-05-25 17:42:00,
2013-05-25 13:52:00,48.0,-99.9,30.43,NW,319,3.0,5.0,-999,-99.99,,,-99.99,,2013-05-25 17:52:00,
2013-05-25 14:02:00,48.0,-99.9,30.43,NW,319,3.0,5.0,-999,-99.99,,,-99.99,,2013-05-25 18:02:00,
2013-05-25 14:12:00,48.0,-99.9,30.42,NW,319,3.0,5.0,-999,-99.99,,,-99.99,,2013-05-25 18:12:00,
2013-05-25 14:22:00,48.0,-99.9,30.42,NW,319,3.0,5.0,-999,-99.99,,,-99.99,,2013-05-25 18:22:00,
2013-05-25 14:32:00,48.0,-99.9,30.43,NW,319,3.0,5.0,-999,-99.99,,,-99.99,,2013-05-25 18:32:00,
2013-05-25 14:42:00,48.0,-99.9,30.43,NW,319,3.0,5.0,-999,-99.99,,,-99.99,,2013-05-25 18:42:00,
2013-05-25 14:52:00,47.0,-99.9,31.13,WNW,284,4.0,6.0,-999,-99.99,,,-99.99,,2013-05-25 18:52:00,
2013-05-25 15:02:00,48.0,-99.9,30.42,WSW,257,4.0,5.0,-999,-99.99,,,-99.99,,2013-05-25 19:02:00,
2013-05-25 15:11:00,48.0,-99.9,30.43,WSW,257,4.0,5.0,-999,-99.99,,,-99.99,,2013-05-25 19:11:00,
2013-05-25 15:22:00,47.0,-99.9,30.42,WNW,284,4.0,6.0,-999,-99.99,,,-99.99,,2013-05-25 19:22:00,
2013-05-25 15:32:00,47.0,-99.9,30.42,WNW,284,4.0,6.0,-999,-99.99,,,-99.99,,2013-05-25 19:32:00,
2013-05-25 15:42:00,47.0,-99.9,30.42,WNW,284,4.0,6.0,-999,-99.99,,,-99.99,,2013-05-25 19:42:00,
2013-05-25 15:52:00,49.0,-99.9,30.42,WSW,258,3.0,6.0,-999,-99.99,,,-99.99,,2013-05-25 19:52:00,
2013-05-25 16:02:00,49.0,-99.9,31.12,NW,314,3.0,7.0,-999,-99.99,,,-99.99,,2013-05-25 20:02:00,
2013-05-25 16:11:00,49.0,-99.9,30.41,NW,314,3.0,7.0,-999,-99.99,,,-99.99,,2013-05-25 20:11:00,
2013-05-25 16:22:00,49.0,-99.9,30.41,NW,314,3.0,7.0,-999,-99.99,,,-99.99,,2013-05-25 20:22:00,
2013-05-25 16:32:00,49.0,-99.9,30.42,WSW,258,3.0,6.0,-999,-99.99,,,-99.99,,2013-05-25 20:32:00,
2013-05-25 16:42:00,50.0,-99.9,31.09,NW,320,5.0,9.0,-999,-99.99,,,-99.99,,2013-05-25 20:42:00,
2013-05-25 16:52:00,50.0,-99.9,30.39,NW,320,5.0,9.0,-999,-99.99,,,-99.99,,2013-05-25 20:52:00,
2013-05-25 17:02:00,52.0,-99.9,30.39,NNW,327,4.0,10.0,-999,-99.99,,,-99.99,,2013-05-25 21:02:00,
2013-05-25 17:11:00,52.0,-99.9,30.39,NNW,327,4.0,10.0,-999,-99.99,,,-99.99,,2013-05-25 21:11:00,
2013-05-25 17:22:00,50.0,-99.9,30.39,NW,320,5.0,9.0,-999,-99.99,,,-99.99,,2013-05-25 21:22:00,
2013-05-25 17:33:00,50.0,-99.9,30.39,NW,320,5.0,9.0,-999,-99.99,,,-99.99,,2013-05-25 21:33:00,
2013-05-25 17:43:00,50.0,-99.9,30.39,NW,320,5.0,9.0,-999,-99.99,,,-99.99,,2013-05-25 21:43:00,
2013-05-25 17:53:00,54.0,-99.9,30.37,NNW,340,3.0,10.0,-999,-99.99,,,-99.99,,2013-05-25 21:53:00,
2013-05-25 18:03:00,53.0,-99.9,31.07,NNW,330,1.0,4.0,-999,-99.99,,,-99.99,,2013-05-25 22:03:00,
2013-05-25 18:13:00,53.0,-99.9,30.37,NNW,330,1.0,4.0,-999,-99.99,,,-99.99,,2013-05-25 22:13:00,
2013-05-25 18:23:00,53.0,-99.9,30.37,NNW,330,1.0,4.0,-999,-99.99,,,-99.99,,2013-05-25 22:23:00,
2013-05-25 18:33:00,54.0,-99.9,30.37,NNW,340,3.0,10.0,-999,-99.99,,,-99.99,,2013-05-25 22:33:00,
2013-05-25 18:42:00,54.0,-99.9,30.37,NNW,340,3.0,10.0,-999,-99.99,,,-99.99,,2013-05-25 22:42:00,
2013-05-25 18:52:00,52.0,-99.9,30.37,West,274,2.0,6.0,-999,-99.99,,,-99.99,,2013-05-25 22:52:00,
2013-05-25 19:02:00,53.0,-99.9,31.07,WNW,295,3.0,4.0,-999,-99.99,,,-99.99,,2013-05-25 23:02:00,
2013-05-25 19:12:00,53.0,-99.9,30.37,WNW,295,3.0,4.0,-999,-99.99,,,-99.99,,2013-05-25 23:12:00,
2013-05-25 19:22:00,52.0,-99.9,30.37,West,274,2.0,6.0,-999,-99.99,,,-99.99,,2013-05-25 23:22:00,
2013-05-25 19:32:00,52.0,-99.9,30.37,West,274,2.0,6.0,-999,-99.99,,,-99.99,,2013-05-25 23:32:00,
2013-05-25 19:42:00,52.0,-99.9,31.07,West,274,2.0,6.0,-999,-99.99,,,-99.99,,2013-05-25 23:42:00,
2013-05-25 19:53:00,52.0,-99.9,31.06,WSW,243,3.0,6.0,-999,-99.99,,,-99.99,,2013-05-25 23:53:00,
2013-05-25 20:02:00,52.0,-99.9,30.36,West,275,3.0,4.0,-999,-99.99,,,-99.99,,2013-05-26 00:02:00,
2013-05-25 20:12:00,52.0,-99.9,30.35,West,275,3.0,4.0,-999,-99.99,,,-99.99,,2013-05-26 00:12:00,
2013-05-25 20:22:00,52.0,-99.9,31.06,WSW,243,3.0,6.0,-999,-99.99,,,-99.99,,2013-05-26 00:22:00,
2013-05-25 20:32:00,52.0,-99.9,30.36,WSW,243,3.0,6.0,-999,-99.99,,,-99.99,,2013-05-26 00:32:00,
2013-05-25 20:43:00,49.0,-99.9,31.04,WNW,292,2.0,5.0,-999,-99.99,,,-99.99,,2013-05-26 00:43:00,
2013-05-25 20:53:00,49.0,-99.9,30.34,WNW,292,2.0,5.0,-999,-99.99,,,-99.99,,2013-05-26 00:53:00,
2013-05-25 21:01:00,50.0,-99.9,31.04,NNW,328,3.0,8.0,-999,-99.99,,,-99.99,,2013-05-26 01:01:00,
2013-05-25 21:11:00,50.0,-99.9,30.34,NNW,328,3.0,8.0,-999,-99.99,,,-99.99,,2013-05-26 01:11:00,
2013-05-25 21:21:00,50.0,-99.9,30.34,NNW,328,3.0,8.0,-999,-99.99,,,-99.99,,2013-05-26 01:21:00,
2013-05-25 21:32:00,49.0,-99.9,30.34,WNW,292,2.0,5.0,-999,-99.99,,,-99.99,,2013-05-26 01:32:00,
2013-05-25 21:40:00,44.0,-99.9,30.34,ENE,64,0.0,5.0,-999,-99.99,,,-99.99,,2013-05-26 01:40:00,
2013-05-25 21:42:00,49.0,-99.9,30.34,WNW,292,2.0,5.0,-999,-99.99,,,-99.99,,2013-05-26 01:42:00,
2013-05-25 21:53:00,49.0,-99.9,30.34,WNW,292,2.0,5.0,-999,-99.99,,,-99.99,,2013-05-26 01:53:00,
2013-05-25 22:02:00,44.0,-99.9,31.04,ENE,64,0.0,5.0,-999,-99.99,,,-99.99,,2013-05-26 02:02:00,
2013-05-25 22:11:00,44.0,-99.9,30.34,ENE,64,0.0,5.0,-999,-99.99,,,-99.99,,2013-05-26 02:11:00,
2013-05-25 22:22:00,44.0,-99.9,30.34,ENE,64,0.0,5.0,-999,-99.99,,,-99.99,,2013-05-26 02:22:00,
2013-05-25 22:32:00,44.0,-99.9,30.34,ENE,64,0.0,5.0,-999,-99.99,,,-99.99,,2013-05-26 02:32:00,
2013-05-25 22:40:00,44.0,-99.9,30.34,NE,55,4.0,5.0,-999,-99.99,,,-99.99,,2013-05-26 02:40:00,
2013-05-25 23:11:00,44.0,-99.9,30.34,NE,55,4.0,5.0,-999,-99.99,,,-99.99,,2013-05-26 03:11:00,
2013-05-25 23:22:00,44.0,-99.9,30.34,NE,55,4.0,5.0,-999,-99.99,,,-99.99,,2013-05-26 03:22:00,
2013-05-25 23:33:00,44.0,-99.9,30.34,NE,55,4.0,5.0,-999,-99.99,,,-99.99,,2013-05-26 03:33:00,
2013-05-25 23:40:00,43.0,-99.9,30.34,ENE,65,3.0,5.0,-999,-99.99,,,-99.99,,2013-05-26 03:40:00,